EHI
0 0 0 0 0 0 0 0 0 0 0 0 0 0 0 0 0 0 0 0 0 0 0 0 0 0 0 0 0 0 0 0 0 0 0 0 0 0 0 0 0 0 0 0
0 0 0 0 0 0 0 0 0 0 0 0 0 0 0 0 0 0 0 0 0 0 0 0 0 0 0 0 0 0 0 0 0 0 0 0 0 0 0 0 0 0 0 0
0 0 0 0 0 0 0 0 0 0 0 0 0 0 0 0 0 0 0 0 0 0 0 0 0 1 1 1 0 0 0 0 0 0 0 0 0 0 0 0 0 0 0 0
0 0 0 0 0 0 0 0 0 0 0 0 0 0 0 0 0 0 0 0 0 1 0 0 0 1 2 2 1 0 0 0 0 0 0 0 0 0 0 0 0 0 0 0
0 0 0 0 0 0 0 0 0 0 0 0 0 0 0 0 0 0 0 0 0 0 0 0 0 1 3 3 2 0 0 0 0 0 0 0 0 0 0 0 0 0 0 0
0 0 0 0 0 0 0 0 0 0 0 0 0 0 0 0 0 0 0 0 0 0 0 0 1 2 2 2 1 0 0 0 0 0 0 0 0 0 0 0 0 0 0 0
0 0 0 0 0 0 0 0 0 0 0 0 0 0 0 0 0 0 0 0 0 0 0 1 2 2 1 1 0 0 0 0 0 0 0 0 0 0 0 0 0 0 0 0
0 0 0 0 0 0 0 0 0 0 0 0 0 0 0 0 0 0 0 0 0 0 0 1 1 1 0 0 0 0 0 0 0 0 0 0 0 0 0 0 0 0 0 0
0 0 0 0 0 0 0 0 0 0 0 0 0 0 0 0 0 0 0 0 0 0 0 0 0 0 0 0 0 0 0 0 0 0 0 0 0 0 0 0 0 0 0 0
0 0 0 0 0 0 0 0 0 0 0 0 0 0 0 0 0 0 0 0 0 0 0 0 0 0 0 0 0 0 0 0 0 0 0 0 0 0 0 0 0 0 0 0
0 0 0 0 0 0 0 0 0 0 0 0 0 0 0 0 0 0 0 0 0 0 0 0 0 0 0 0 0 0 0 0 0 0 0 0 0 0 0 0 0 0 0 0
0 0 0 0 0 0 0 0 0 0 0 0 0 0 0 0 0 0 0 0 0 0 0 0 0 0 0 0 0 0 0 0 0 0 0 0 0 0 0 0 0 0 0 0
0 0 0 0 0 0 0 0 0 0 0 0 0 0 0 0 0 0 0 0 0 0 0 0 1 1 1 0 0 0 0 0 0 0 0 0 0 0 0 0 0 0 0 0
0 0 0 0 0 0 0 0 0 0 0 0 0 0 0 0 0 0 0 0 0 0 0 0 1 2 2 0 0 0 0 0 0 0 0 0 0 0 0 0 0 0 0 0
0 0 0 0 0 0 0 0 0 0 0 0 0 0 0 0 0 0 0 0 0 0 0 0 1 1 1 0 0 0 0 0 0 0 0 0 0 0 0 0 0 0 0 0
0 0 0 0 0 0 0 0 0 0 0 0 0 0 0 0 0 0 0 0 0 0 0 0 0 0 0 0 0 0 0 0 0 0 0 0 0 0 0 0 0 0 0 0
0 0 0 0 0 0 0 0 0 0 0 0 0 0 0 0 0 0 0 0 0 0 0 0 0 0 0 0 0 0 0 0 0 0 0 0 0 0 0 0 0 0 0 0
0 0 0 0 0 0 0 0 0 0 0 0 0 0 0 0 0 0 0 0 0 0 0 0 0 0 0 0 0 0 0 0 0 0 0 0 0 0 0 0 0 0 0 1
0 0 0 0 0 0 0 0 0 0 0 0 0 0 0 0 0 0 0 0 0 0 0 0 0 0 0 0 0 0 0 0 0 0 0 0 0 0 0 0 0 0 0 1
0 0 0 0 0 0 0 0 0 0 0 0 0 0 0 0 0 0 0 0 0 0 0 0 0 0 0 0 0 0 0 0 0 0 0 0 0 0 0 0 0 0 0 1
0 0 0 0 0 0 0 0 0 0 0 0 0 0 0 0 0 0 0 0 0 0 0 0 0 0 0 0 0 0 0 0 0 0 0 0 0 0 0 0 0 0 0 0
0 0 0 0 0 0 0 0 0 0 0 0 0 0 0 0 0 0 0 0 0 0 0 0 0 0 0 0 0 0 0 0 0 0 0 0 0 0 0 0 0 0 0 0
0 0 0 0 0 0 0 0 0 0 0 0 0 0 0 0 0 0 0 0 0 0 0 0 0 0 0 0 0 0 0 0 0 0 0 0 0 0 0 0 0 0 0 0
0 0 0 0 0 0 0 0 0 0 0 0 0 0 0 0 0 0 0 0 0 0 0 0 0 0 1 1 1 0 0 0 0 0 0 0 0 0 0 0 0 0 0 0
0 0 0 0 0 0 0 0 0 0 0 0 0 0 0 0 0 0 0 0 0 0 0 0 0 0 1 1 1 0 0 0 0 0 0 0 0 0 0 0 0 0 0 0
0 0 0 0 0 0 0 0 0 0 0 0 0 0 0 0 0 0 0 0 0 0 0 0 0 0 0 1 0 0 0 0 0 0 0 0 0 0 0 0 0 0 0 0
Wind_Speed
5 6 6 5 4 2 3 4 3 2 2 4 4 4 6 8 9 9 9 9 9 8 7 7 6 6 6 5 5 5 5 5 3 3 2 2 2 2 2 2 3 3 3 3
7 6 3 3 4 5 5 5 4 3 3 4 4 4 5 7 10 10 10 10 10 9 9 8 7 7 7 6 5 5 5 5 4 2 2 1 2 1 2 2 3 3 3 3
6 3 5 7 7 7 6 5 4 3 3 4 5 5 6 7 9 9 10 10 10 10 10 10 9 8 7 7 6 5 5 5 5 4 3 3 2 2 2 2 2 3 3 3
5 5 7 7 7 7 5 4 4 4 5 3 4 4 4 7 9 11 12 11 12 11 11 10 9 9 8 7 6 6 6 5 5 5 4 3 2 2 1 1 2 2 3 2
5 6 7 8 6 6 2 4 5 5 5 5 5 6 2 5 8 10 12 13 13 13 12 11 10 10 9 8 7 6 6 6 6 5 4 3 2 2 2 2 2 2 2 2
3 5 5 4 4 5 6 6 5 5 6 6 4 6 3 3 5 6 9 12 13 13 13 11 10 10 9 8 7 6 7 6 6 6 5 4 3 3 3 2 2 2 2 1
7 7 6 6 7 8 8 7 4 5 5 3 2 5 4 1 2 4 6 10 12 12 12 12 11 11 10 9 9 8 8 7 7 7 6 5 4 4 3 2 2 1 1 1
7 7 8 8 8 7 9 8 4 3 2 1 3 5 1 0 2 3 5 7 10 12 12 12 12 11 10 10 10 9 9 8 8 7 6 5 5 3 2 2 2 2 1 1
6 5 6 5 5 7 8 8 5 5 4 4 3 3 3 3 3 3 5 7 10 11 12 12 11 11 10 10 10 10 9 9 8 8 6 5 4 4 3 3 3 2 2 2
5 5 6 6 6 5 6 6 6 6 4 4 4 4 2 2 3 3 5 6 8 10 11 11 11 11 10 10 9 10 9 9 9 8 7 5 5 4 3 3 3 3 2 2
6 7 7 8 9 9 9 9 8 6 5 4 3 1 2 1 0 2 3 5 7 9 10 10 9 10 10 9 9 10 9 9 8 8 7 7 6 5 5 4 3 3 3 3
5 5 7 8 5 4 8 8 9 7 6 6 5 1 3 1 0 1 2 4 6 8 9 9 9 9 9 10 10 10 9 9 8 8 7 7 6 6 5 4 4 4 4 3
5 6 7 7 8 8 9 9 9 8 6 7 7 2 4 1 1 1 2 3 5 7 8 8 8 9 9 9 9 9 9 9 8 8 7 7 7 6 5 5 4 4 5 4
5 7 8 6 3 6 8 9 10 11 9 9 10 7 4 3 3 2 2 3 5 7 8 8 8 8 8 9 9 9 9 9 8 8 8 7 7 6 5 5 5 5 4 4
6 7 8 8 7 8 9 10 12 13 12 11 9 9 8 6 5 3 3 4 5 7 8 8 8 8 9 9 9 9 9 9 9 8 8 7 7 5 5 4 4 4 4 4
7 7 7 9 8 9 11 13 13 14 13 13 12 11 7 6 5 4 4 5 6 7 7 8 8 9 9 9 9 9 9 9 9 9 8 7 7 6 5 5 5 4 4 4
6 7 7 8 6 8 13 12 13 13 12 12 13 9 5 5 5 5 4 5 6 6 7 7 8 8 9 9 10 10 10 9 9 8 8 7 7 7 6 6 5 5 5 5
8 8 5 6 7 11 5 3 7 10 11 11 10 7 6 6 6 5 4 5 5 6 6 7 7 7 8 8 9 10 10 9 9 8 8 8 7 7 6 6 6 6 5 5
9 8 6 6 8 8 5 5 6 8 9 8 9 7 5 4 4 5 4 5 5 5 5 6 6 7 7 8 9 9 10 9 9 8 8 8 8 8 7 7 6 6 5 5
6 8 7 7 8 7 3 2 3 7 8 5 6 6 5 5 6 3 2 4 4 4 4 4 5 6 7 8 9 9 9 9 9 8 8 8 8 8 8 7 6 5 5 5
8 8 10 10 9 6 1 1 4 7 2 1 5 6 7 7 5 2 2 3 3 3 4 5 5 5 6 7 9 9 9 9 8 7 7 7 7 8 7 6 5 5 5 4
8 7 9 8 9 6 3 4 5 3 3 3 5 5 6 6 3 2 2 3 3 3 4 5 5 5 5 7 8 9 8 7 7 7 7 7 7 6 6 6 5 5 5 5
7 6 4 6 4 1 3 4 4 4 4 4 5 6 6 6 4 4 4 3 3 3 4 5 5 5 5 6 7 8 7 7 7 7 7 7 7 6 6 6 6 5 5 4
5 4 6 7 7 5 5 5 5 5 5 5 4 5 5 5 5 4 4 3 3 4 4 5 5 5 5 5 6 6 6 7 8 8 7 7 7 6 6 5 5 5 5 5
4 4 6 9 7 5 5 6 5 5 5 4 3 4 5 5 5 5 4 4 3 4 4 4 5 5 5 5 6 6 6 7 8 7 7 7 6 6 5 5 4 5 5 4
5 6 6 6 5 5 5 4 4 4 4 3 3 3 3 4 4 4 4 3 4 4 4 4 4 4 4 5 5 6 6 7 7 6 6 5 5 5 5 5 4 2 2 3
Wind_Direction
173 186 189 189 201 208 185 193 192 179 164 217 226 224 198 186 198 201 198 195 194 190 181 176 178 176 172 163 163 159 160 154 151 148 157 143 119 105 94 70 62 60 53 50
179 193 195 181 180 191 200 201 190 170 175 236 244 247 222 200 206 208 205 199 195 190 185 179 182 184 182 173 174 170 170 163 161 154 151 132 112 102 80 75 62 50 53 47
202 163 164 182 186 196 207 219 212 201 194 220 255 244 214 199 207 209 214 208 199 197 197 187 190 191 188 185 182 183 179 171 166 163 155 149 145 157 139 115 88 59 53 55
207 189 188 192 197 214 211 217 221 214 228 226 248 275 219 200 204 209 210 207 205 201 203 198 195 194 196 191 184 187 179 171 165 169 176 171 168 151 114 96 101 99 73 64
187 186 194 203 205 216 202 178 207 225 245 256 236 263 238 189 214 213 209 207 205 203 204 200 198 197 196 189 185 184 177 174 171 178 171 187 172 144 133 135 123 113 87 66
215 204 220 211 187 196 165 172 187 219 237 247 240 254 270 204 226 213 201 202 202 201 200 199 196 196 195 188 183 184 184 178 175 182 181 188 168 164 161 159 134 132 114 95
206 207 198 198 185 180 205 214 210 209 216 235 203 248 258 270 247 241 213 201 197 196 195 194 192 190 190 188 187 187 186 182 182 187 186 184 177 181 175 171 156 161 134 116
208 201 190 201 215 203 208 228 242 248 249 243 203 244 250 159 251 244 226 202 193 192 193 194 193 190 189 189 189 190 187 184 182 187 187 187 176 183 171 181 168 168 147 119
217 198 171 191 213 218 206 220 253 272 264 257 225 230 225 201 202 193 190 187 190 190 191 193 191 189 190 190 190 192 188 185 184 186 185 187 184 180 177 189 174 167 157 144
245 218 186 174 186 204 242 216 213 240 253 244 239 238 233 175 184 173 178 182 185 187 189 190 190 189 190 188 189 189 190 187 185 185 186 181 189 187 194 188 179 177 170 165
238 230 193 194 209 203 192 204 222 231 253 267 261 179 64 313 191 186 175 174 177 183 186 185 184 187 186 184 184 185 187 186 184 186 186 184 187 188 195 192 185 182 182 181
218 239 215 210 204 238 230 226 223 231 224 245 269 265 104 244 216 216 188 167 173 178 179 178 178 179 180 183 185 186 186 187 185 186 185 184 183 186 195 192 188 190 187 183
199 229 211 195 195 200 217 222 228 240 241 237 244 220 124 154 198 214 194 168 169 173 174 172 172 176 180 182 183 185 186 186 183 183 185 183 186 191 196 195 194 194 187 180
230 237 237 231 227 202 213 216 221 227 234 237 241 256 244 252 274 273 210 181 173 175 175 173 175 177 180 181 181 183 185 183 180 181 183 185 187 189 196 196 194 197 191 186
233 240 237 246 245 235 237 232 224 230 241 251 254 257 265 273 273 264 221 188 179 180 180 181 181 180 179 181 181 181 183 181 180 182 185 187 185 181 188 191 192 192 192 193
234 239 232 237 235 233 241 238 235 237 240 246 255 259 270 274 260 248 223 195 192 191 188 188 186 183 183 181 180 179 182 183 182 183 185 184 183 178 184 189 192 185 186 190
221 235 232 236 231 238 238 231 227 228 229 238 247 254 254 249 242 241 226 210 206 199 193 192 191 189 187 183 179 181 182 180 184 184 180 181 184 183 187 188 189 189 190 190
227 233 239 238 224 236 234 208 223 230 233 235 245 252 249 252 250 243 236 226 215 201 197 197 196 190 187 183 179 180 178 180 185 185 181 183 189 186 186 189 191 197 197 193
226 224 230 232 236 248 235 207 217 231 235 234 238 246 253 260 236 230 235 237 227 212 203 197 195 188 183 180 177 175 176 181 185 187 187 186 187 186 186 190 196 200 199 197
207 224 235 229 236 241 223 176 237 238 236 220 229 232 227 225 235 231 219 225 220 207 195 184 186 184 181 178 176 177 178 182 189 190 190 184 185 185 187 191 191 193 196 199
196 209 225 231 238 250 279 166 198 222 263 278 238 225 217 230 257 293 215 204 197 185 179 172 174 177 178 176 176 181 182 187 190 186 185 181 182 185 184 182 183 185 191 194
211 211 217 223 233 235 125 169 210 272 332 284 247 227 224 236 253 246 214 196 177 173 170 169 169 170 171 175 179 182 187 187 181 178 180 181 181 181 180 176 180 186 187 192
226 230 228 231 243 317 201 227 266 292 282 277 254 239 232 235 240 231 215 197 183 178 170 171 170 166 168 174 184 185 183 179 174 174 178 179 177 178 180 180 180 184 189 196
218 238 235 242 243 249 249 259 273 280 284 283 268 245 232 235 232 218 208 196 187 178 174 175 174 172 172 175 185 189 177 175 175 176 178 178 178 179 180 183 187 189 193 201
231 216 234 245 255 261 255 260 275 280 279 276 270 252 239 234 222 206 198 192 185 176 174 178 183 183 179 178 185 183 179 177 179 179 178 178 180 179 184 184 190 198 199 205
216 221 229 245 257 259 265 266 279 277 272 266 257 255 250 231 213 200 195 189 182 176 173 179 185 185 182 182 183 179 179 183 183 180 181 179 177 178 183 182 179 166 206 177